• In Belarus
  • List of Countries
  • For 7 days
  • Water Temperature
  • Satellite Maps
  • Weather Map
  • Weather Widgets
  • user-avatar
    Login

    Hourly Weather Chandur

    Today, 21 January, Monday

    Time Temperature Precipitation Wind Pressure Humidity
    00:00 +22°C° 0 mm 1 mps 740 mmHg 31%
    01:00 +21°C° 0 mm 1 mps 740 mmHg 32%
    02:00 +21°C° 0 mm 1 mps 739 mmHg 33%
    03:00 +20°C° 0 mm 1 mps 739 mmHg 34%
    04:00 +20°C° 0 mm 1 mps 739 mmHg 35%
    05:00 +20°C° 0 mm 1 mps 739 mmHg 36%
    06:00 +21°C° 0 mm 1 mps 740 mmHg 35%
    07:00 +22°C° 0 mm 1 mps 740 mmHg 34%
    08:00 +23°C° 0 mm 1 mps 741 mmHg 33%
    09:00 +25°C° 0 mm 2 mps 741 mmHg 30%
    10:00 +28°C° 0 mm 2 mps 741 mmHg 26%
    11:00 +30°C° 0 mm 2 mps 741 mmHg 23%
    12:00 +31°C° 0 mm 3 mps 740 mmHg 21%
    13:00 +33°C° 0 mm 3 mps 739 mmHg 20%
    14:00 +34°C° 0 mm 3 mps 739 mmHg 18%
    15:00 +33°C° 0 mm 3 mps 738 mmHg 21%
    16:00 +31°C° 0 mm 3 mps 738 mmHg 24%
    17:00 +30°C° 0 mm 2 mps 738 mmHg 27%
    18:00 +28°C° 0 mm 2 mps 738 mmHg 29%
    19:00 +27°C° 0 mm 2 mps 739 mmHg 31%
    20:00 +25°C° 0 mm 2 mps 739 mmHg 34%
    21:00 +25°C° 0 mm 3 mps 739 mmHg 36%
    22:00 +24°C° 0 mm 3 mps 739 mmHg 39%
    23:00 +24°C° 0 mm 3 mps 739 mmHg 42%

    Tomorrow, 22 January, Tuesday

    Time Temperature Precipitation Wind Pressure Humidity
    00:00 +23°C° 0 mm 4 mps 739 mmHg 45%
    01:00 +22°C° 0 mm 4 mps 738 mmHg 49%
    02:00 +22°C° 0 mm 4 mps 738 mmHg 53%
    03:00 +22°C° 0 mm 4 mps 738 mmHg 58%
    04:00 +21°C° 0 mm 4 mps 738 mmHg 62%
    05:00 +20°C° 0 mm 4 mps 738 mmHg 66%
    06:00 +21°C° 0 mm 4 mps 739 mmHg 63%
    07:00 +22°C° 0 mm 4 mps 740 mmHg 60%
    08:00 +23°C° 0 mm 4 mps 740 mmHg 57%
    09:00 +26°C° 0 mm 4 mps 740 mmHg 49%
    10:00 +28°C° 0 mm 4 mps 740 mmHg 42%
    11:00 +30°C° 0 mm 3 mps 740 mmHg 34%
    12:00 +31°C° 0 mm 3 mps 740 mmHg 30%
    13:00 +33°C° 0 mm 3 mps 739 mmHg 27%
    14:00 +34°C° 0 mm 3 mps 738 mmHg 23%
    15:00 +32°C° 0 mm 2 mps 738 mmHg 25%
    16:00 +31°C° 0 mm 2 mps 737 mmHg 26%
    17:00 +31°C° 0 mm 1 mps 737 mmHg 28%
    18:00 +29°C° 0 mm 2 mps 738 mmHg 29%
    19:00 +27°C° 0 mm 2 mps 738 mmHg 31%
    20:00 +26°C° 0 mm 3 mps 739 mmHg 33%
    21:00 +25°C° 0 mm 3 mps 739 mmHg 35%
    22:00 +25°C° 0 mm 3 mps 739 mmHg 37%
    23:00 +24°C° 0 mm 3 mps 739 mmHg 39%

    Day after tomorrow, 23 January, Wednesday

    Time Temperature Precipitation Wind Pressure Humidity
    00:00 +23°C° 0 mm 4 mps 738 mmHg 44%
    01:00 +23°C° 0 mm 4 mps 738 mmHg 49%
    02:00 +22°C° 0 mm 5 mps 738 mmHg 54%
    03:00 +22°C° 0 mm 4 mps 738 mmHg 61%
    04:00 +21°C° 0 mm 4 mps 738 mmHg 68%
    05:00 +20°C° 0 mm 3 mps 738 mmHg 74%
    06:00 +21°C° 0 mm 3 mps 739 mmHg 70%
    07:00 +22°C° 0 mm 4 mps 740 mmHg 66%
    08:00 +23°C° 0 mm 4 mps 740 mmHg 62%
    09:00 +26°C° 0 mm 4 mps 740 mmHg 53%
    10:00 +28°C° 0 mm 4 mps 740 mmHg 44%
    11:00 +32°C° 0 mm 4 mps 740 mmHg 35%
    12:00 +33°C° 0 mm 4 mps 739 mmHg 32%
    13:00 +33°C° 0 mm 4 mps 738 mmHg 29%
    14:00 +34°C° 0 mm 3 mps 737 mmHg 25%
    15:00 +33°C° 0 mm 3 mps 737 mmHg 27%
    16:00 +32°C° 0 mm 2 mps 737 mmHg 28%
    17:00 +31°C° 0 mm 1 mps 737 mmHg 29%
    18:00 +30°C° 0 mm 1 mps 738 mmHg 32%
    19:00 +28°C° 0 mm 1 mps 738 mmHg 34%
    20:00 +27°C° 0 mm 1 mps 739 mmHg 36%
    21:00 +26°C° 0 mm 1 mps 739 mmHg 38%
    22:00 +25°C° 0 mm 1 mps 739 mmHg 40%
    23:00 +24°C° 0 mm 1 mps 739 mmHg 42%

    24 January, Thursday

    Time Temperature Precipitation Wind Pressure Humidity
    00:00 +24°C° 0 mm 1 mps 739 mmHg 43%
    01:00 +24°C° 0 mm 1 mps 739 mmHg 44%
    02:00 +23°C° 0 mm 1 mps 738 mmHg 45%
    03:00 +23°C° 0 mm 1 mps 739 mmHg 45%
    04:00 +22°C° 0 mm 1 mps 739 mmHg 46%
    05:00 +22°C° 0 mm 1 mps 739 mmHg 47%
    06:00 +23°C° 0 mm 1 mps 740 mmHg 45%
    07:00 +24°C° 0 mm 1 mps 740 mmHg 44%
    08:00 +24°C° 0 mm 1 mps 741 mmHg 43%
    09:00 +26°C° 0 mm 1 mps 741 mmHg 40%
    10:00 +28°C° 0 mm 2 mps 741 mmHg 37%
    11:00 +30°C° 0 mm 2 mps 741 mmHg 35%
    12:00 +31°C° 0 mm 2 mps 740 mmHg 33%
    13:00 +32°C° 0 mm 2 mps 739 mmHg 31%
    14:00 +34°C° 0 mm 2 mps 738 mmHg 30%
    15:00 +32°C° 0 mm 2 mps 738 mmHg 31%
    16:00 +31°C° 0 mm 2 mps 738 mmHg 33%
    17:00 +30°C° 0 mm 1 mps 737 mmHg 35%
    18:00 +29°C° 0 mm 2 mps 738 mmHg 37%
    19:00 +28°C° 0 mm 2 mps 738 mmHg 40%
    20:00 +27°C° 0 mm 2 mps 739 mmHg 42%
    21:00 +27°C° 0 mm 2 mps 739 mmHg 43%
    22:00 +26°C° 0 mm 2 mps 739 mmHg 45%
    23:00 +25°C° 0 mm 2 mps 739 mmHg 47%

    25 January, Friday

    Time Temperature Precipitation Wind Pressure Humidity
    00:00 +24°C° 0 mm 2 mps 738 mmHg 47%
    01:00 +24°C° 0 mm 3 mps 738 mmHg 46%
    02:00 +24°C° 0 mm 3 mps 738 mmHg 46%
    03:00 +23°C° 0 mm 2 mps 738 mmHg 48%
    04:00 +23°C° 0 mm 2 mps 738 mmHg 50%
    05:00 +23°C° 0 mm 1 mps 738 mmHg 52%
    06:00 +23°C° 0 mm 2 mps 738 mmHg 55%
    07:00 +23°C° 0 mm 2 mps 739 mmHg 58%
    08:00 +23°C° 0 mm 2 mps 740 mmHg 60%
    09:00 +25°C° 0 mm 2 mps 740 mmHg 54%
    10:00 +27°C° 0 mm 3 mps 740 mmHg 48%
    11:00 +28°C° 0 mm 4 mps 740 mmHg 42%
    12:00 +29°C° 0 mm 4 mps 739 mmHg 40%
    13:00 +30°C° 0 mm 4 mps 738 mmHg 38%
    14:00 +30°C° 0 mm 5 mps 737 mmHg 36%
    15:00 +30°C° 0 mm 4 mps 737 mmHg 37%
    16:00 +30°C° 0 mm 3 mps 737 mmHg 38%
    17:00 +30°C° 0 mm 2 mps 737 mmHg 40%
    18:00 +28°C° 0.1 mm 2 mps 737 mmHg 44%
    19:00 +27°C° 0.1 mm 2 mps 738 mmHg 48%
    20:00 +26°C° 0.1 mm 2 mps 738 mmHg 52%
    21:00 +25°C° 0 mm 2 mps 738 mmHg 55%
    22:00 +24°C° 0 mm 2 mps 738 mmHg 59%
    23:00 +24°C° 0 mm 2 mps 738 mmHg 63%

    26 January, Saturday

    Time Temperature Precipitation Wind Pressure Humidity
    00:00 +23°C° 1.6 mm 2 mps 738 mmHg 68%
    01:00 +21°C° 1.6 mm 2 mps 737 mmHg 73%
    02:00 +21°C° 1.6 mm 1 mps 737 mmHg 79%
    03:00 +19°C° 1.4 mm 2 mps 737 mmHg 80%
    04:00 +19°C° 1.4 mm 2 mps 738 mmHg 81%
    05:00 +19°C° 1.4 mm 3 mps 738 mmHg 82%
    06:00 +19°C° 0.2 mm 2 mps 739 mmHg 81%
    07:00 +20°C° 0.2 mm 2 mps 739 mmHg 80%
    08:00 +20°C° 0.2 mm 2 mps 740 mmHg 79%
    09:00 +23°C° 0.1 mm 2 mps 740 mmHg 71%
    10:00 +26°C° 0.1 mm 3 mps 740 mmHg 64%
    11:00 +28°C° 0.1 mm 3 mps 741 mmHg 57%
    12:00 +28°C° 0.7 mm 2 mps 740 mmHg 54%
    13:00 +29°C° 0.7 mm 2 mps 739 mmHg 50%
    14:00 +30°C° 0.7 mm 1 mps 738 mmHg 47%
    15:00 +29°C° 0 mm 1 mps 738 mmHg 49%
    16:00 +29°C° 0 mm 1 mps 738 mmHg 52%
    17:00 +28°C° 0 mm 1 mps 738 mmHg 54%
    18:00 +27°C° 0.9 mm 1 mps 739 mmHg 61%
    19:00 +25°C° 0.9 mm 1 mps 739 mmHg 68%
    20:00 +24°C° 0.9 mm 1 mps 740 mmHg 76%
    21:00 +23°C° 0.5 mm 1 mps 740 mmHg 78%
    22:00 +23°C° 0.5 mm 1 mps 740 mmHg 80%
    23:00 +22°C° 0.5 mm 1 mps 740 mmHg 82%
    Show more